EW3994 Weather Reports


Display with metric or nautical units.
time (UTC)temp
F
wind
direction
speed
MPH
gust
MPH
rain 1hr
in
rain 24hr
in
rain mn
in
humidity
%
barometer
mb
20260503031807 66 304 12.0 22.0 0.00 0.31 0.14 46 1010.2
20260503030907 64 305 15.0 28.0 0.00 0.31 0.14 49 1010.3
20260503030007 63 297 13.0 24.0 0.00 0.31 0.14 50 1010.5
20260503025107 63 303 14.0 27.0 0.00 0.31 0.14 48 1010.5
20260503024206 64 298 13.0 24.0 0.00 0.31 0.14 47 1010.5
20260503023307 65 305 14.0 25.0 0.00 0.31 0.14 45 1010.6
20260503022407 65 323 13.0 24.0 0.00 0.31 0.14 50 1010.6
20260503021507 64 321 11.0 24.0 0.00 0.31 0.14 51 1010.6
20260503020607 62 326 13.0 26.0 0.00 0.31 0.14 53 1010.7
20260503015707 62 321 12.0 22.0 0.00 0.31 0.14 55 1010.7
20260503014807 62 320 13.0 25.0 0.00 0.31 0.14 52 1010.7
20260503013906 62 320 14.0 28.0 0.00 0.31 0.14 52 1010.7
20260503013007 63 316 13.0 22.0 0.00 0.31 0.14 51 1010.7
20260503011207 62 312 14.0 24.0 0.00 0.31 0.14 53 1010.8
20260503004507 61 326 13.0 23.0 0.00 0.31 0.14 55 1010.9
20260503003607 61 320 12.0 22.0 0.00 0.31 0.14 55 1010.9
20260503002707 61 322 10.0 17.0 0.00 0.31 0.14 55 1011.0
20260503001807 60 327 11.0 20.0 0.00 0.31 0.14 57 1011.2
20260503000906 60 335 9.0 17.0 0.00 0.31 0.14 56 1011.1
20260502234206 60 336 8.0 15.0 0.00 0.31 0.14 58 1011.1
20260502233306 59 339 8.0 15.0 0.00 0.31 0.14 58 1011.0
20260502232406 58 334 8.0 19.0 0.00 0.31 0.14 60 1011.2
20260502231507 57 346 8.0 15.0 0.00 0.32 0.14 62 1011.1
20260502230607 55 344 8.0 14.0 0.00 0.33 0.14 64 1011.1
20260502225706 55 344 8.0 14.0 0.00 0.33 0.14 65 1011.1
20260502224807 54 349 8.0 16.0 0.00 0.33 0.14 66 1011.1
20260502223006 53 354 8.0 16.0 0.00 0.33 0.14 67 1011.2
20260502222106 53 1 7.0 14.0 0.00 0.33 0.14 67 1010.9
20260502220306 53 346 5.0 10.0 0.00 0.33 0.14 67 1011.0
20260502215406 53 350 7.0 13.0 0.00 0.33 0.14 67 1010.7
20260502214505 53 351 6.0 12.0 0.00 0.33 0.14 67 1010.7
20260502213606 53 2 7.0 15.0 0.00 0.33 0.14 67 1010.5
20260502212705 53 2 7.0 13.0 0.00 0.33 0.14 67 1010.5
20260502211806 53 359 8.0 14.0 0.00 0.33 0.14 67 1010.3
20260502210906 53 8 7.0 15.0 0.00 0.33 0.14 67 1010.2
20260502205107 53 6 7.0 14.0 0.00 0.33 0.14 67 1009.9
20260502204206 53 5 7.0 12.0 0.00 0.33 0.14 67 1009.8
20260502203306 53 6 7.0 13.0 0.00 0.33 0.14 67 1009.8
20260502202406 53 359 7.0 12.0 0.00 0.33 0.14 67 1009.9
20260502200606 53 355 6.0 11.0 0.00 0.33 0.14 67 1009.9
20260502194807 53 351 7.0 12.0 0.00 0.33 0.14 67 1009.8
20260502193006 53 350 5.0 11.0 0.00 0.33 0.14 67 1009.7
20260502192106 53 355 6.0 13.0 0.01 0.33 0.14 66 1009.6
20260502191206 53 356 5.0 10.0 0.01 0.33 0.14 66 1009.6
20260502190306 53 354 6.0 11.0 0.03 0.33 0.14 66 1009.5
20260502185406 53 359 5.0 11.0 0.05 0.33 0.14 66 1009.4
20260502184506 53 5 6.0 12.0 0.06 0.33 0.14 66 1009.5
20260502183605 54 2 6.0 10.0 0.07 0.33 0.14 66 1009.4
20260502182706 54 6 5.0 11.0 0.07 0.33 0.14 66 1009.5
20260502181805 54 9 5.0 9.0 0.07 0.32 0.13 66 1009.4
20260502163905 54 7 6.0 12.0 0.00 0.19 0.00 67 1009.6
20260502163005 54 7 6.0 13.0 0.00 0.19 0.00 67 1009.6
20260502162106 54 8 6.0 10.0 0.00 0.19 0.00 67 1009.8
20260502161205 54 8 5.0 9.0 0.00 0.19 0.00 67 1009.9
20260502160305 54 5 6.0 11.0 0.00 0.19 0.00 67 1010.0
20260502151805 54 6 6.0 10.0 0.00 0.19 0.00 66 1010.0
20260502130305 57 353 6.0 11.0 0.00 0.19 0.19 66 1010.6
20260502123605 58 358 6.0 12.0 0.00 0.19 0.19 66 1010.6
20260502122704 58 359 6.0 12.0 0.00 0.19 0.19 67 1010.7
20260502121805 58 1 6.0 11.0 0.00 0.19 0.19 67 1010.6
20260502120905 58 358 6.0 11.0 0.00 0.19 0.19 66 1010.6
20260502114205 58 356 6.0 11.0 0.00 0.19 0.19 66 1010.4
20260502113305 58 355 6.0 12.0 0.00 0.19 0.19 66 1010.4
20260502112405 58 355 5.0 12.0 0.00 0.19 0.19 66 1010.3
20260502110605 59 10 6.0 11.0 0.00 0.19 0.19 66 1010.2
20260502105705 59 21 6.0 12.0 0.00 0.19 0.19 66 1009.9
20260502104805 59 17 6.0 12.0 0.00 0.19 0.19 66 1010.0
20260502103905 59 19 6.0 13.0 0.00 0.19 0.19 66 1009.8
20260502103004 58 19 5.0 10.0 0.00 0.19 0.19 66 1009.9
20260502102104 58 19 6.0 11.0 0.00 0.19 0.19 66 1009.8
20260502101204 58 25 5.0 10.0 0.00 0.19 0.19 66 1009.7
20260502100304 58 22 5.0 9.0 0.00 0.19 0.19 66 1009.7
20260502090904 59 22 5.0 9.0 0.00 0.19 0.19 66 1009.4
20260502071204 60 13 4.0 9.0 0.05 0.19 0.19 66 1009.0
20260502070304 60 15 5.0 10.0 0.06 0.19 0.19 66 1009.3
20260502065404 60 13 5.0 11.0 0.05 0.18 0.18 66 1009.1
20260502064505 60 7 5.0 9.0 0.04 0.17 0.17 66 1009.2
20260502061804 60 351 4.0 8.0 0.03 0.14 0.14 65 1008.8
20260502060905 60 2 4.0 9.0 0.03 0.14 0.14 65 1008.7
20260502060004 60 341 4.0 9.0 0.03 0.13 0.13 65 1008.7
20260502055104 61 326 4.0 9.0 0.03 0.13 0.13 65 1009.0
20260502054204 61 317 6.0 13.0 0.04 0.13 0.13 65 1008.8
20260502053304 62 316 7.0 13.0 0.05 0.12 0.12 65 1009.0
20260502052404 62 328 4.0 10.0 0.05 0.11 0.11 65 1008.7
20260502051504 62 329 3.0 8.0 0.08 0.11 0.11 66 1008.4
20260502045704 62 308 2.0 7.0 0.07 0.10 0.10 65 1008.9
20260502044804 62 294 3.0 5.0 0.07 0.09 0.09 65 1008.3
20260502043905 62 304 4.0 9.0 0.06 0.09 0.09 65 1008.4
20260502043005 62 305 5.0 10.0 0.05 0.07 0.07 65 1008.9
20260502042104 63 317 3.0 10.0 0.03 0.06 0.06 65 1008.9
20260502040304 63 336 2.0 6.0 0.02 0.03 0.03 65 1008.6
20260502035403 63 322 3.0 9.0 0.02 0.03 0.03 65 1008.7
20260502034504 63 314 4.0 9.0 0.01 0.02 0.02 64 1009.0
20260502033603 63 308 4.0 9.0 0.01 0.02 0.02 63 1009.0